[[{"header":{"parameterUnit":"m.s-1","parameterCategory":1,"la1":30.2991,"la2":30.254,"lo1":-89.0895,"lo2":-89.0444,"dy":0.0017,"dx":0.0017,"nx":28,"ny":28,"refTime":"2024-06-30T03:00:00:Z","depth":0,"parameterNumber":2,"parameterNumberName":"U-component_of_WINDS"},"data":[0,0,0,0,0,0,0,0,0,0,0,0,0,0,0,0,0,0,0,0,0,0,0,0,0,0,0,0,0,0,0,0,0,0,0,0,0,0,0,0,0,0,0,0,0,0,0,0,0,0,0,0,0,0,0,0,0,0,-0.4941,-0.494,0,-0.4792,-0.479,-0.4788,-0.4741,-0.4741,-0.4742,-0.4743,-0.4584,-0.4579,-0.4574,0,0,0,0,0,0,0,0,0,0,0,0,0,-0.518,-0.5176,-0.4942,-0.494,-0.4938,-0.4792,-0.479,-0.4788,-0.4741,-0.4742,-0.4742,-0.4743,-0.4585,-0.458,-0.4574,0,0,0,0,0,0,0,0,0,0,0,0,0,-0.5058,-0.5175,-0.4942,-0.4897,-0.4891,-0.4792,-0.479,-0.4787,-0.474,-0.4742,-0.4743,-0.4744,-0.4587,-0.458,-0.4573,-0.4506,0,0,-0.4551,-0.4547,0,0,0,0,0,0,0,0,-0.5065,-0.5049,-0.4905,-0.49,-0.4893,-0.4786,-0.4816,-0.4693,-0.474,-0.4798,-0.4743,-0.4744,-0.465,-0.4637,-0.4607,-0.4499,-0.4492,-0.455,-0.4545,-0.4542,-0.454,0,0,0,0,0,0,0,-0.5074,-0.5056,-0.4882,-0.4903,-0.4896,-0.4882,-0.4866,-0.4792,-0.4719,-0.4793,-0.4789,-0.4772,-0.4647,-0.4614,-0.4603,-0.449,-0.455,-0.4544,-0.4539,-0.4536,-0.4317,-0.4316,0,0,0,0,0,0,-0.5091,-0.5063,-0.4887,-0.4878,-0.4984,-0.4877,-0.4859,-0.4819,-0.472,-0.4706,-0.4771,-0.477,-0.4626,-0.4611,-0.4597,-0.4511,-0.4542,-0.4535,-0.4531,-0.4319,-0.4317,-0.4315,0,0,0,0,0,0,-0.5096,-0.5075,-0.4893,-0.4969,-0.4945,-0.4872,-0.4828,-0.4816,-0.4783,-0.4704,-0.469,-0.4752,-0.4626,-0.4607,-0.4529,-0.4505,-0.4532,-0.4525,-0.432,-0.4318,-0.4316,-0.434,0,0,0,0,0,0,-0.5103,-0.5078,-0.5053,-0.4969,-0.4941,-0.483,-0.4826,-0.4812,-0.4771,-0.4769,-0.4682,-0.4669,-0.4626,-0.454,-0.4522,-0.4496,-0.452,-0.4322,-0.4319,-0.4317,-0.4341,-0.4339,-0.4338,0,0,0,0,0,-0.5112,-0.5065,-0.5052,-0.5031,-0.4909,-0.4828,-0.4812,-0.4765,-0.477,-0.4743,-0.4692,-0.4671,-0.4511,-0.4533,-0.4511,-0.4483,-0.4323,-0.432,-0.4317,-0.4342,-0.434,-0.4338,0,0,0,0,0,0,-0.5146,-0.5053,-0.5038,-0.4963,-0.4904,-0.4821,-0.4786,-0.4764,-0.4702,-0.4702,-0.4645,-0.4625,-0.4551,-0.4509,-0.4535,-0.4412,-0.4416,-0.4408,-0.4442,-0.4439,-0.4438,-0.4449,-0.4514,0,0,0,0,0,-0.5146,-0.509,-0.501,-0.4952,-0.4923,-0.486,-0.4823,-0.4792,-0.4728,-0.4702,-0.4645,-0.4583,-0.4518,-0.4476,-0.4412,-0.4335,-0.4314,-0.4304,-0.4303,-0.4301,-0.4295,-0.425,-0.4244,-0.4305,-0.4305,-0.4305,0,0,-0.5143,-0.5085,-0.5053,-0.4957,-0.4908,-0.4849,-0.4839,-0.4778,-0.4733,-0.4692,-0.4615,-0.4571,-0.4497,-0.4419,-0.4381,-0.4381,-0.4274,-0.4297,-0.4297,-0.4291,-0.4246,-0.424,-0.4235,-0.4303,-0.4303,-0.4304,0,0,-0.5108,-0.5059,-0.5004,-0.4956,-0.4882,-0.484,-0.4827,-0.4746,-0.4716,-0.4638,-0.4606,-0.4551,-0.4441,-0.4389,-0.4348,-0.4292,-0.427,-0.4273,-0.4263,-0.4219,-0.4215,-0.421,-0.4189,-0.4182,-0.4267,-0.4267,-0.4267,0,-0.5113,-0.5026,-0.4979,-0.4919,-0.4877,-0.4839,-0.4782,-0.4736,-0.4644,-0.4615,-0.4617,-0.4478,-0.4425,-0.4333,-0.432,-0.4288,-0.427,-0.4283,-0.4219,-0.4214,-0.4209,-0.4189,-0.4181,-0.4268,-0.4268,-0.4268,-0.4268,0,-0.5035,-0.4975,-0.4939,-0.4854,-0.4807,-0.4749,-0.4692,-0.465,-0.4623,-0.458,-0.45,-0.4436,-0.4358,-0.4334,-0.4306,-0.4237,-0.424,-0.4231,-0.4234,-0.4205,-0.4185,-0.4177,-0.4269,-0.4269,-0.4269,-0.4268,0,0,-0.5018,-0.4907,-0.4895,-0.4855,-0.477,-0.4722,-0.4661,-0.4586,-0.4551,-0.4489,-0.4435,-0.4343,-0.4334,-0.4288,-0.4253,-0.4215,-0.4174,-0.4211,-0.4208,-0.4205,-0.4093,-0.41,-0.4092,-0.4159,-0.4157,-0.4156,-0.4099,0,-0.4972,-0.4864,-0.482,-0.4732,-0.4674,-0.4637,-0.4583,-0.4524,-0.4482,-0.4426,-0.4378,-0.4314,-0.4307,-0.4279,-0.424,-0.4188,-0.415,-0.4191,-0.4106,-0.4104,-0.4126,-0.4081,-0.4088,-0.4038,-0.4091,-0.4089,-0.4088,0,-0.4904,-0.4843,-0.475,-0.4671,-0.4645,-0.4599,-0.4526,-0.4473,-0.4404,-0.4376,-0.4325,-0.4292,-0.4225,-0.4232,-0.4137,-0.4166,-0.4128,-0.4097,-0.4094,-0.4084,-0.4095,-0.4069,-0.4021,-0.4013,-0.4075,-0.4077,-0.4077,0,-0.49,-0.4794,-0.4725,-0.4692,-0.4599,-0.4566,-0.4526,-0.4458,-0.4416,-0.4352,-0.4323,-0.4251,-0.4211,-0.4155,-0.4104,-0.4114,-0.4013,-0.4017,-0.3986,-0.3988,-0.3967,-0.3969,-0.3911,-0.3943,-0.3943,-0.3944,-0.3944,0,-0.4853,-0.4797,-0.4722,-0.4679,-0.4615,-0.4563,-0.45,-0.4456,-0.4396,-0.4343,-0.4305,-0.4255,-0.419,-0.4131,-0.409,-0.4017,-0.3999,-0.3973,-0.3963,-0.3976,-0.3979,-0.3951,-0.3953,-0.3942,-0.3942,-0.3942,-0.3943,0,-0.4838,-0.4785,-0.4707,-0.4625,-0.4603,-0.456,-0.4489,-0.4444,-0.4401,-0.4333,-0.4314,-0.4244,-0.4173,-0.4116,-0.4022,-0.3994,-0.3917,-0.3905,-0.3941,-0.3935,-0.3908,-0.3911,-0.383,-0.3816,-0.3858,-0.3858,-0.3858,0,-0.4811,-0.4768,-0.4682,-0.4644,-0.4605,-0.4544,-0.4501,-0.4447,-0.4403,-0.4322,-0.4287,-0.4213,-0.4151,-0.4038,-0.3978,-0.3905,-0.3891,-0.3868,-0.388,-0.3895,-0.389,-0.3893,-0.3888,-0.3866,-0.3866,-0.3866,-0.3866,0,-0.4769,-0.4745,-0.4686,-0.4617,-0.4567,-0.4509,-0.4451,-0.4421,-0.4356,-0.4309,-0.4236,-0.4188,-0.4093,-0.4019,-0.394,-0.3896,-0.3869,-0.3863,-0.3851,-0.3865,-0.3887,-0.3874,-0.3937,-0.3865,-0.3865,-0.3865,-0.3865,-0.3865,-0.4747,-0.4706,-0.464,-0.4574,-0.4525,-0.4471,-0.4425,-0.4376,-0.4315,-0.4235,-0.4206,-0.4131,-0.4061,-0.3953,-0.3908,-0.3847,-0.3844,-0.3829,-0.3825,-0.3821,-0.3823,-0.3897,-0.3832,-0.3832,-0.3832,-0.3832,-0.3832,0,-0.4703,-0.4658,-0.4598,-0.4518,-0.4466,-0.4448,-0.4381,-0.4338,-0.4274,-0.4212,-0.4152,-0.4068,-0.3996,-0.393,-0.3854,-0.3818,-0.3804,-0.38,-0.3802,-0.3792,-0.3829,-0.3846,-0.3813,-0.3813,-0.3813,-0.3813,-0.3813,-0.3813,-0.4674,-0.4604,-0.4572,-0.4476,-0.443,-0.4358,-0.4322,-0.4271,-0.4222,-0.413,-0.4071,-0.4029,-0.3964,-0.3884,-0.3816,-0.3798,-0.3772,-0.3771,-0.375,-0.3786,-0.3789,-0.3792,-0.3807,-0.3766,-0.3766,-0.3717,-0.3717,-0.3717]},{"header":{"parameterUnit":"m.s-1","parameterCategory":1,"la1":30.2991,"la2":30.254,"lo1":-89.0895,"lo2":-89.0444,"dy":0.0017,"dx":0.0017,"nx":28,"ny":28,"refTime":"2024-06-30T03:00:00:Z","depth":0,"parameterNumber":3,"parameterNumberName":"V-component_of_WINDS"},"data":[0,0,0,0,0,0,0,0,0,0,0,0,0,0,0,0,0,0,0,0,0,0,0,0,0,0,0,0,0,0,0,0,0,0,0,0,0,0,0,0,0,0,0,0,0,0,0,0,0,0,0,0,0,0,0,0,0,0,-1.5385,-1.5383,0,-1.5272,-1.5271,-1.527,-1.5264,-1.5265,-1.5267,-1.5268,-1.5148,-1.5143,-1.5139,0,0,0,0,0,0,0,0,0,0,0,0,0,-1.5592,-1.5588,-1.5385,-1.5383,-1.5382,-1.5272,-1.5271,-1.5269,-1.5264,-1.5265,-1.5267,-1.5268,-1.5149,-1.5144,-1.5138,0,0,0,0,0,0,0,0,0,0,0,0,0,-1.5493,-1.5587,-1.5385,-1.5366,-1.5363,-1.5273,-1.5271,-1.5269,-1.5263,-1.5265,-1.5267,-1.5269,-1.5151,-1.5144,-1.5138,-1.5057,0,0,-1.5117,-1.5114,0,0,0,0,0,0,0,0,-1.5499,-1.5485,-1.537,-1.5367,-1.5364,-1.5284,-1.53,-1.5198,-1.5263,-1.5301,-1.5268,-1.527,-1.5191,-1.5181,-1.5156,-1.5051,-1.5046,-1.5117,-1.5113,-1.511,-1.5108,0,0,0,0,0,0,0,-1.5506,-1.549,-1.534,-1.5369,-1.5365,-1.5362,-1.5351,-1.5281,-1.5236,-1.5298,-1.5297,-1.5284,-1.519,-1.5162,-1.5153,-1.5044,-1.5117,-1.5111,-1.5107,-1.5104,-1.4872,-1.487,0,0,0,0,0,0,-1.5517,-1.5496,-1.5344,-1.5337,-1.5438,-1.5357,-1.5344,-1.5308,-1.5237,-1.5228,-1.5283,-1.5285,-1.5172,-1.5161,-1.5148,-1.5052,-1.511,-1.5104,-1.51,-1.4875,-1.4872,-1.487,0,0,0,0,0,0,-1.5521,-1.5503,-1.5348,-1.5416,-1.5396,-1.5351,-1.5311,-1.5304,-1.5277,-1.5226,-1.5217,-1.5263,-1.5174,-1.5158,-1.5081,-1.5048,-1.5101,-1.5095,-1.4877,-1.4874,-1.4871,-1.4858,0,0,0,0,0,0,-1.5527,-1.5505,-1.5474,-1.5416,-1.5393,-1.5283,-1.5309,-1.5301,-1.5266,-1.5267,-1.5205,-1.5196,-1.5174,-1.5091,-1.5075,-1.504,-1.5089,-1.488,-1.4876,-1.4872,-1.4861,-1.4855,-1.4849,0,0,0,0,0,-1.5534,-1.5472,-1.5472,-1.5454,-1.5353,-1.5281,-1.5268,-1.5245,-1.5263,-1.5232,-1.52,-1.5198,-1.5054,-1.5083,-1.5064,-1.5027,-1.4882,-1.4877,-1.4872,-1.4864,-1.4856,-1.4849,0,0,0,0,0,0,-1.5525,-1.5464,-1.5463,-1.5381,-1.5337,-1.5281,-1.524,-1.5237,-1.5185,-1.5188,-1.516,-1.5146,-1.5071,-1.5041,-1.5075,-1.4948,-1.497,-1.4961,-1.497,-1.4962,-1.4956,-1.4966,-1.5084,0,0,0,0,0,-1.5514,-1.5462,-1.5411,-1.5343,-1.5321,-1.5285,-1.5252,-1.5239,-1.5191,-1.5172,-1.5134,-1.5086,-1.5031,-1.4994,-1.494,-1.4857,-1.4844,-1.4822,-1.4816,-1.4811,-1.4804,-1.4761,-1.4752,-1.4854,-1.4854,-1.4854,0,0,-1.5489,-1.5449,-1.5417,-1.534,-1.5304,-1.5251,-1.5269,-1.521,-1.517,-1.5162,-1.5089,-1.5059,-1.5005,-1.4926,-1.4888,-1.4898,-1.4774,-1.4805,-1.4802,-1.4797,-1.4755,-1.4746,-1.4737,-1.485,-1.4851,-1.4851,0,0,-1.5417,-1.5381,-1.5323,-1.5288,-1.5235,-1.5212,-1.5198,-1.5143,-1.5124,-1.505,-1.5045,-1.4996,-1.49,-1.4863,-1.4831,-1.475,-1.4748,-1.4733,-1.4702,-1.466,-1.4652,-1.4645,-1.4619,-1.461,-1.4726,-1.4726,-1.4726,0,-1.5393,-1.5313,-1.5293,-1.5236,-1.5203,-1.5196,-1.5138,-1.5104,-1.5035,-1.5012,-1.5024,-1.4907,-1.4869,-1.4783,-1.4764,-1.4738,-1.4722,-1.474,-1.4655,-1.4648,-1.4641,-1.4616,-1.4606,-1.4725,-1.4725,-1.4725,-1.4725,0,-1.5288,-1.5233,-1.5192,-1.5129,-1.5091,-1.5033,-1.5004,-1.4968,-1.4959,-1.4935,-1.4862,-1.4817,-1.4756,-1.4734,-1.4722,-1.4646,-1.4655,-1.4661,-1.4684,-1.4631,-1.4606,-1.4596,-1.4723,-1.4723,-1.4724,-1.4724,0,0,-1.5205,-1.5135,-1.512,-1.5094,-1.5037,-1.4993,-1.4936,-1.4879,-1.485,-1.4803,-1.4755,-1.4676,-1.4684,-1.4648,-1.4633,-1.4596,-1.4539,-1.4607,-1.4606,-1.4598,-1.4456,-1.4453,-1.4442,-1.4537,-1.4535,-1.4533,-1.4461,0,-1.5129,-1.5029,-1.5011,-1.4924,-1.4875,-1.4869,-1.482,-1.478,-1.4756,-1.471,-1.4683,-1.4629,-1.4641,-1.462,-1.4584,-1.4554,-1.451,-1.4558,-1.4493,-1.4491,-1.4509,-1.4429,-1.4424,-1.4358,-1.4451,-1.445,-1.4449,0,-1.5026,-1.4982,-1.4891,-1.4844,-1.4823,-1.4779,-1.4727,-1.4683,-1.4637,-1.4623,-1.4586,-1.4576,-1.4517,-1.4542,-1.4461,-1.4494,-1.4466,-1.4448,-1.4444,-1.4438,-1.4467,-1.4422,-1.4336,-1.4328,-1.4433,-1.4434,-1.4435,0,-1.4979,-1.4895,-1.4831,-1.4808,-1.4751,-1.4721,-1.4696,-1.4653,-1.4621,-1.4575,-1.4554,-1.45,-1.4471,-1.443,-1.4407,-1.4426,-1.4329,-1.4351,-1.4316,-1.4317,-1.4296,-1.4298,-1.4207,-1.4275,-1.4275,-1.4275,-1.4275,0,-1.4897,-1.4843,-1.481,-1.4771,-1.471,-1.469,-1.463,-1.4604,-1.4567,-1.4523,-1.4513,-1.4472,-1.4442,-1.4397,-1.4377,-1.4315,-1.4301,-1.4289,-1.4284,-1.429,-1.4292,-1.4273,-1.4277,-1.4273,-1.4273,-1.4274,-1.4274,0,-1.4834,-1.481,-1.4741,-1.4694,-1.4681,-1.4639,-1.4599,-1.4561,-1.4538,-1.4483,-1.4469,-1.4433,-1.4379,-1.4352,-1.4283,-1.4271,-1.4201,-1.4199,-1.4218,-1.4216,-1.4184,-1.4189,-1.4078,-1.4064,-1.414,-1.4139,-1.4139,0,-1.4784,-1.4743,-1.4694,-1.4665,-1.464,-1.4593,-1.4562,-1.454,-1.4508,-1.4456,-1.4424,-1.4371,-1.4327,-1.4242,-1.4209,-1.4158,-1.4155,-1.412,-1.4147,-1.4156,-1.4158,-1.4161,-1.4158,-1.4116,-1.4115,-1.4114,-1.4114,0,-1.47,-1.4691,-1.4647,-1.46,-1.4564,-1.4525,-1.4487,-1.4463,-1.4436,-1.44,-1.4347,-1.4313,-1.4246,-1.4194,-1.4141,-1.4114,-1.411,-1.4106,-1.4096,-1.4102,-1.4116,-1.4111,-1.4207,-1.4108,-1.4109,-1.4109,-1.411,-1.411,-1.4643,-1.4608,-1.4569,-1.4522,-1.4492,-1.4457,-1.4421,-1.4395,-1.4351,-1.4297,-1.4287,-1.4231,-1.4189,-1.4119,-1.409,-1.4046,-1.4053,-1.4038,-1.4034,-1.4031,-1.4031,-1.4122,-1.4036,-1.4036,-1.4036,-1.4036,-1.4036,0,-1.4561,-1.4537,-1.4493,-1.4442,-1.4405,-1.4407,-1.4366,-1.4334,-1.4287,-1.4249,-1.4208,-1.4148,-1.4098,-1.4063,-1.4013,-1.3984,-1.3981,-1.3972,-1.3975,-1.3969,-1.4026,-1.4041,-1.3976,-1.3976,-1.3976,-1.3976,-1.3976,-1.3976,-1.4514,-1.4455,-1.4442,-1.437,-1.4345,-1.4293,-1.427,-1.4238,-1.4209,-1.4144,-1.4104,-1.4082,-1.4046,-1.3993,-1.3948,-1.3939,-1.3922,-1.3913,-1.3904,-1.3958,-1.3965,-1.3971,-1.3985,-1.3909,-1.3909,-1.3851,-1.3851,-1.385]}]]